Location: Boncourt
(49.6160°N, 3.9448°E)
Time: 16:08:08
(UTC+00:00)

Cosmos 968 Rocket - Pass Details

Date: 09 February 2023
Orbit: 740 x 770 km, 74.0° (Epoch: 25 March)

Event Time Altitude Azimuth Distance (km) Brightness Sun altitude
Rises 18:28:02 0° 193° (SSW) 3,205 6.9 -15.8°
Reaches altitude 10° 18:30:23 10° 191° (S) 2,288 6.1 -16.2°
Maximum altitude 18:35:32 67° 109° (ESE) 829 3.4 -17.0°
Drops below altitude 10° 18:40:46 10° 28° (NNE) 2,320 5.7 -17.9°
Enters shadow 18:41:14 - 27° (NNE) 2,500 5.9 -17.9°
